Regional Weather Roundup
Issued by NWS Cleveland, OH

Home | Current Version | Previous Version | Graphics & Text | Print | Product List | Glossary On
Versions: 1 2 3 4 5 6 7 8 9 10 11 12 13 14 15 16 17 18 19 20 21 22 23 24 25 26 27 28 29 30 31 32 33 34 35 36 37 38 39 40 41 42 43 44 45 46 47 48 49 50
000
ASUS41 KCLE 301810
RWRCLE
OHIO REGIONAL WEATHER ROUNDUP
NATIONAL WEATHER SERVICE WILMINGTON, OH
200 PM EDT SUN AUG 30 2015

NOTE: "FAIR" INDICATES FEW OR NO CLOUDS BELOW 12,000 FEET WITH NO
SIGNIFICANT WEATHER AND/OR OBSTRUCTIONS TO VISIBILITY.

OHZ001>008-015>018-024>027-034-035-043-044-301900-
   NORTHWEST OHIO

CITY           SKY/WX    TMP DP  RH WIND       PRES   REMARKS
DEFIANCE       MOSUNNY   83  67  58 SW7       30.06F
FINDLAY        PTSUNNY   84  69  60 SW9G16    30.06F
TOLEDO EXPRESS PTSUNNY   81  68  64 SW9       30.05F
TOLEDO EXEC    MOSUNNY   83  67  58 SW9       30.06F
LIMA           MOSUNNY   82  68  62 SW6       30.08F
$$

OHZ009>014-019>023-028>033-038-089-301900-
   NORTHEAST OHIO

CITY           SKY/WX    TMP DP  RH WIND       PRES   REMARKS
CLE-HOPKINS    PTSUNNY   81  70  69 W6        30.10F
CLE-LAKEFRONT  MOSUNNY   79  70  74 NW5       30.07F
CUY CO. ARPT   PTSUNNY   81  70  69 W7        30.10F
LORAIN-ELYRIA  PTSUNNY   82  68  62 SW9       30.08F
ASHTABULA      PTSUNNY   77  66  68 VRB5      30.10F
AKRON-CANTON   PTSUNNY   80  66  62 S7        30.11F
WOOSTER        MOSUNNY   82  69  64 SW8       30.11F
MANSFIELD      MOSUNNY   82  67  60 SW9       30.11F
YOUNGSTOWN     PTSUNNY   79  67  66 SW7       30.11F
$$

OHZ042-051>053-060>062-070>072-077>081-301900-
  SOUTHWEST OHIO

CITY           SKY/WX    TMP DP  RH WIND       PRES   REMARKS
CINC-COVINGTON PTSUNNY   83  70  64 SW7       30.10F
CINC-LUNKEN    SUNNY     83  72  69 S5        30.09F
HAMILTON       PTSUNNY   84  70  62 VRB3      30.10F
DAYTON         MOSUNNY   83  70  64 SW9       30.10F
WRIGHT-PAT AFB MOSUNNY   84  70  62 S10       30.08F
DAYTON GENERAL MOSUNNY   81  69  67 S9        30.10F
WILMINGTON     MOSUNNY   82  69  64 SW10      30.11F
$$

OHZ036-037-039>041-045>050-054>059-063>069-073>076-082>088-301900-
  CENTRAL AND SOUTHEAST OHIO

CITY           SKY/WX    TMP DP  RH WIND       PRES   REMARKS
COLUMBUS       PTSUNNY   83  68  60 VRB7      30.09F
OSU AIRPORT    MOSUNNY   83  69  62 S6        30.09F
BOLTON FIELD   MOSUNNY   82  72  69 S8        30.10F
RICKENBACK AFB MOSUNNY   84  67  55 S9        30.09F
NEWARK         MOSUNNY   83  69  62 SW9       30.10F
MARION         MOSUNNY   81  67  62 MISG      30.10F
LANCASTER      MOSUNNY   84  66  54 SW8       30.11F
ZANESVILLE     MOSUNNY   85  63  47 VRB6      30.10F
NEW PHILLY     MOSUNNY   82  67  60 VRB6      30.12F
$$


USA.gov is the U.S. government's official web portal to all federal, state and local government web resources and services.